Simultaneous Nadir Overpasses (SNOs) Predictions

Prediction of SNOs between GOES-14 and AQUA Satellite Orbit:

Table of predicted SNOs for the next 14.0 days since TLE Epoch: 6/20/2020
Index Date Time (GOES-14) GOES-14 Lat,Lon AQUA Lat,Lon Distance(km) Time Diff (sec)
1 06/21/2020 08:17:33 -0.09,-104.19 -0.90,-100.26 445.97 80
2 06/21/2020 20:36:18 0.12,-104.38 -0.14,-105.46 123.93 80
3 06/23/2020 20:26:47 0.12,-104.38 0.53,-102.52 212.58 80
4 06/24/2020 08:45:22 -0.15,-104.19 0.61,-107.66 395.79 80
5 06/26/2020 08:33:11 -0.14,-104.19 -0.06,-104.71 59.17 80
6 06/28/2020 08:23:39 -0.14,-104.19 -0.66,-101.75 277.61 80
7 06/28/2020 20:42:24 0.17,-104.39 -0.36,-106.96 291.54 80
8 06/30/2020 20:32:52 0.17,-104.39 0.25,-104.00 45.14 80
9 07/02/2020 20:20:40 0.17,-104.39 0.87,-101.04 381.69 80
10 07/03/2020 08:39:16 -0.20,-104.20 0.22,-106.19 227.11 80




NCC Satellite Simultaneous Nadir Overpasses (SNOs) Prediction Service
